When you browse on this site, cookies collect data to enhance your experience and personalize the content and advertising you see.
Visit our Privacy Policy to learn more. By continuing to use the site, you agree to this use of cookies and data.
  • In United Kingdom
  • List of Countries
  • For 7 days
  • Water Temperature
  • Satellite Maps
  • Weather Map
  • Weather Widgets
  • user-avatar
    Login

    Hourly Weather Bubanza

    Today, 22 January, Tuesday

    Time Temperature Precipitation Wind Pressure Humidity
    00:00 +20°C° 0 mm 0 mps 674 mmHg 70%
    01:00 +19°C° 0 mm 0 mps 674 mmHg 71%
    02:00 +19°C° 0 mm 0 mps 674 mmHg 73%
    03:00 +19°C° 0 mm 0 mps 673 mmHg 74%
    04:00 +21°C° 0 mm 1 mps 673 mmHg 75%
    05:00 +20°C° 0 mm 1 mps 673 mmHg 76%
    06:00 +22°C° 0 mm 1 mps 673 mmHg 69%
    07:00 +22°C° 0 mm 0 mps 674 mmHg 62%
    08:00 +24°C° 0 mm 0 mps 674 mmHg 55%
    09:00 +29°C° 0 mm 1 mps 674 mmHg 47%
    10:00 +32°C° 0 mm 1 mps 675 mmHg 39%
    11:00 +34°C° 0 mm 1 mps 675 mmHg 30%
    12:00 +34°C° 0 mm 1 mps 674 mmHg 31%
    13:00 +35°C° 0 mm 2 mps 673 mmHg 32%
    14:00 +34°C° 0 mm 2 mps 673 mmHg 33%
    15:00 +31°C° 0 mm 2 mps 672 mmHg 39%
    16:00 +29°C° 0 mm 2 mps 672 mmHg 44%
    17:00 +27°C° 0 mm 2 mps 671 mmHg 50%
    18:00 +26°C° 0.1 mm 1 mps 672 mmHg 56%
    19:00 +25°C° 0.1 mm 1 mps 672 mmHg 61%
    20:00 +21°C° 0.1 mm 0 mps 672 mmHg 67%
    21:00 +21°C° 0 mm 0 mps 673 mmHg 69%
    22:00 +20°C° 0 mm 0 mps 673 mmHg 72%
    23:00 +19°C° 0 mm 0 mps 673 mmHg 75%

    Tomorrow, 23 January, Wednesday

    Time Temperature Precipitation Wind Pressure Humidity
    00:00 +19°C° 0 mm 0 mps 673 mmHg 75%
    01:00 +19°C° 0 mm 0 mps 673 mmHg 75%
    02:00 +19°C° 0 mm 0 mps 672 mmHg 75%
    03:00 +19°C° 0 mm 0 mps 672 mmHg 74%
    04:00 +19°C° 0 mm 0 mps 672 mmHg 74%
    05:00 +19°C° 0 mm 0 mps 672 mmHg 74%
    06:00 +20°C° 0 mm 0 mps 673 mmHg 68%
    07:00 +22°C° 0 mm 0 mps 674 mmHg 62%
    08:00 +24°C° 0 mm 0 mps 674 mmHg 57%
    09:00 +29°C° 0 mm 1 mps 675 mmHg 49%
    10:00 +31°C° 0 mm 1 mps 675 mmHg 42%
    11:00 +34°C° 0 mm 1 mps 675 mmHg 35%
    12:00 +32°C° 0.1 mm 1 mps 674 mmHg 39%
    13:00 +31°C° 0.1 mm 1 mps 673 mmHg 43%
    14:00 +29°C° 0.1 mm 1 mps 672 mmHg 47%
    15:00 +28°C° 0.1 mm 1 mps 672 mmHg 51%
    16:00 +27°C° 0.1 mm 1 mps 671 mmHg 55%
    17:00 +25°C° 0.1 mm 1 mps 671 mmHg 59%
    18:00 +24°C° 0.1 mm 1 mps 671 mmHg 63%
    19:00 +23°C° 0.1 mm 1 mps 672 mmHg 67%
    20:00 +21°C° 0.1 mm 0 mps 672 mmHg 71%
    21:00 +20°C° 0 mm 0 mps 673 mmHg 72%
    22:00 +20°C° 0 mm 0 mps 673 mmHg 73%
    23:00 +20°C° 0 mm 0 mps 674 mmHg 74%

    Day after tomorrow, 24 January, Thursday

    Time Temperature Precipitation Wind Pressure Humidity
    00:00 +20°C° 0 mm 0 mps 674 mmHg 74%
    01:00 +20°C° 0 mm 0 mps 673 mmHg 74%
    02:00 +20°C° 0 mm 0 mps 673 mmHg 74%
    03:00 +20°C° 0 mm 0 mps 673 mmHg 74%
    04:00 +19°C° 0 mm 0 mps 673 mmHg 74%
    05:00 +19°C° 0 mm 0 mps 673 mmHg 74%
    06:00 +21°C° 0 mm 0 mps 674 mmHg 69%
    07:00 +22°C° 0 mm 0 mps 674 mmHg 64%
    08:00 +23°C° 0 mm 0 mps 675 mmHg 59%
    09:00 +26°C° 0 mm 0 mps 675 mmHg 50%
    10:00 +31°C° 0 mm 1 mps 676 mmHg 41%
    11:00 +34°C° 0 mm 1 mps 676 mmHg 32%
    12:00 +34°C° 0.1 mm 1 mps 675 mmHg 34%
    13:00 +33°C° 0.1 mm 1 mps 674 mmHg 37%
    14:00 +32°C° 0.1 mm 1 mps 673 mmHg 40%
    15:00 +31°C° 0.1 mm 1 mps 672 mmHg 43%
    16:00 +30°C° 0.1 mm 2 mps 672 mmHg 47%
    17:00 +28°C° 0.1 mm 2 mps 672 mmHg 50%
    18:00 +26°C° 0 mm 2 mps 672 mmHg 56%
    19:00 +25°C° 0 mm 1 mps 672 mmHg 62%
    20:00 +23°C° 0 mm 1 mps 673 mmHg 69%
    21:00 +21°C° 0 mm 0 mps 673 mmHg 71%
    22:00 +20°C° 0 mm 0 mps 673 mmHg 73%
    23:00 +20°C° 0 mm 0 mps 674 mmHg 76%

    25 January, Friday

    Time Temperature Precipitation Wind Pressure Humidity
    00:00 +19°C° 0 mm 0 mps 673 mmHg 77%
    01:00 +19°C° 0 mm 0 mps 673 mmHg 78%
    02:00 +18°C° 0 mm 0 mps 672 mmHg 79%
    03:00 +18°C° 0 mm 0 mps 672 mmHg 79%
    04:00 +18°C° 0 mm 0 mps 673 mmHg 79%
    05:00 +18°C° 0 mm 0 mps 673 mmHg 79%
    06:00 +20°C° 0 mm 0 mps 674 mmHg 72%
    07:00 +22°C° 0 mm 0 mps 675 mmHg 64%
    08:00 +24°C° 0 mm 0 mps 675 mmHg 57%
    09:00 +29°C° 0 mm 1 mps 676 mmHg 49%
    10:00 +31°C° 0 mm 1 mps 676 mmHg 42%
    11:00 +34°C° 0 mm 1 mps 676 mmHg 34%
    12:00 +33°C° 0.6 mm 1 mps 675 mmHg 39%
    13:00 +33°C° 0.6 mm 1 mps 674 mmHg 43%
    14:00 +32°C° 0.6 mm 1 mps 673 mmHg 48%
    15:00 +31°C° 1.4 mm 1 mps 673 mmHg 51%
    16:00 +30°C° 1.4 mm 1 mps 673 mmHg 55%
    17:00 +29°C° 1.4 mm 1 mps 673 mmHg 58%
    18:00 +27°C° 0.6 mm 1 mps 673 mmHg 64%
    19:00 +25°C° 0.6 mm 1 mps 673 mmHg 70%
    20:00 +23°C° 0.6 mm 1 mps 673 mmHg 77%
    21:00 +22°C° 0 mm 1 mps 674 mmHg 78%
    22:00 +20°C° 0 mm 0 mps 674 mmHg 79%
    23:00 +19°C° 0 mm 0 mps 674 mmHg 80%

    26 January, Saturday

    Time Temperature Precipitation Wind Pressure Humidity
    00:00 +19°C° 0 mm 0 mps 674 mmHg 81%
    01:00 +18°C° 0 mm 0 mps 673 mmHg 82%
    02:00 +18°C° 0 mm 0 mps 673 mmHg 84%
    03:00 +18°C° 0 mm 0 mps 673 mmHg 83%
    04:00 +17°C° 0 mm 0 mps 673 mmHg 83%
    05:00 +17°C° 0 mm 0 mps 673 mmHg 83%
    06:00 +21°C° 0 mm 1 mps 674 mmHg 75%
    07:00 +23°C° 0 mm 1 mps 674 mmHg 67%
    08:00 +25°C° 0 mm 1 mps 675 mmHg 60%
    09:00 +28°C° 0 mm 1 mps 675 mmHg 52%
    10:00 +31°C° 0 mm 1 mps 676 mmHg 43%
    11:00 +33°C° 0 mm 1 mps 676 mmHg 35%
    12:00 +33°C° 0.5 mm 1 mps 675 mmHg 38%
    13:00 +33°C° 0.5 mm 1 mps 674 mmHg 41%
    14:00 +33°C° 0.5 mm 1 mps 673 mmHg 44%
    15:00 +32°C° 0.1 mm 1 mps 673 mmHg 44%
    16:00 +32°C° 0.1 mm 1 mps 673 mmHg 44%
    17:00 +31°C° 0.1 mm 1 mps 673 mmHg 44%
    18:00 +28°C° 0.2 mm 1 mps 673 mmHg 53%
    19:00 +26°C° 0.2 mm 1 mps 673 mmHg 62%
    20:00 +21°C° 0.2 mm 0 mps 673 mmHg 71%
    21:00 +20°C° 0 mm 0 mps 673 mmHg 73%
    22:00 +20°C° 0 mm 0 mps 673 mmHg 75%
    23:00 +19°C° 0 mm 0 mps 674 mmHg 77%

    27 January, Sunday

    Time Temperature Precipitation Wind Pressure Humidity
    00:00 +19°C° 0 mm 0 mps 673 mmHg 78%
    01:00 +18°C° 0 mm 0 mps 673 mmHg 79%
    02:00 +20°C° 0 mm 1 mps 672 mmHg 80%
    03:00 +20°C° 0 mm 1 mps 672 mmHg 79%
    04:00 +20°C° 0 mm 1 mps 672 mmHg 79%
    05:00 +20°C° 0 mm 1 mps 672 mmHg 79%
    06:00 +22°C° 0 mm 1 mps 673 mmHg 71%
    07:00 +24°C° 0 mm 1 mps 674 mmHg 64%
    08:00 +26°C° 0 mm 1 mps 674 mmHg 56%
    09:00 +29°C° 0 mm 1 mps 675 mmHg 47%
    10:00 +32°C° 0 mm 1 mps 675 mmHg 37%
    11:00 +35°C° 0 mm 1 mps 675 mmHg 28%
    12:00 +35°C° 0 mm 1 mps 675 mmHg 28%
    13:00 +35°C° 0 mm 1 mps 674 mmHg 27%
    14:00 +35°C° 0 mm 1 mps 673 mmHg 27%
    15:00 +34°C° 0 mm 1 mps 673 mmHg 30%
    16:00 +33°C° 0 mm 1 mps 672 mmHg 32%
    17:00 +32°C° 0 mm 2 mps 672 mmHg 35%
    18:00 +29°C° 0.2 mm 1 mps 672 mmHg 46%
    19:00 +26°C° 0.2 mm 1 mps 672 mmHg 56%
    20:00 +23°C° 0.2 mm 1 mps 672 mmHg 67%
    21:00 +23°C° 0 mm 1 mps 673 mmHg 70%
    22:00 +20°C° 0 mm 0 mps 673 mmHg 73%
    23:00 +20°C° 0 mm 0 mps 673 mmHg 75%
    Show more